EW5975 Weather Reports


Display with metric or nautical units.
time (UTC)temp
F
wind
direction
speed
MPH
gust
MPH
rain 1hr
in
rain 24hr
in
rain mn
in
humidity
%
barometer
mb
20260902172015 81 180 1.0 3.0 0.00 0.00 0.00 68 1017.3
20260902171016 81 158 1.0 4.0 0.00 0.00 0.00 68 1017.3
20260902170015 82 135 1.0 3.0 0.00 0.00 0.00 67 1017.2
20260902165015 83 158 1.0 3.0 0.00 0.00 0.00 66 1017.3
20260902164015 84 158 1.0 4.0 0.00 0.00 0.00 65 1017.2
20260902163015 85 248 2.0 3.0 0.00 0.00 0.00 64 1017.3
20260902162016 85 158 1.0 3.0 0.00 0.00 0.00 64 1017.3
20260902161015 85 158 1.0 4.0 0.00 0.00 0.00 64 1017.4
20260902160016 85 135 1.0 3.0 0.00 0.00 0.00 64 1017.4
20260902155015 85 135 1.0 4.0 0.00 0.00 0.00 64 1017.5
20260902154115 85 135 1.0 4.0 0.00 0.00 0.00 63 1017.4
20260902153018 85 135 2.0 5.0 0.00 0.00 0.00 62 1017.5
20260902152036 86 158 2.0 6.0 0.00 0.00 0.00 61 1017.6
20260902151017 87 135 2.0 7.0 0.00 0.00 0.00 59 1017.6
20260902150017 87 135 2.0 5.0 0.00 0.00 0.00 58 1017.6
20260902145017 87 135 2.0 7.0 0.00 0.00 0.00 59 1017.6
20260902144037 88 158 2.0 5.0 0.00 0.00 0.00 58 1017.6
20260902143017 87 135 1.0 4.0 0.00 0.00 0.00 59 1017.8
20260902142037 87 135 2.0 7.0 0.00 0.00 0.00 59 1017.8
20260902141038 87 135 2.0 5.0 0.00 0.00 0.00 60 1017.9
20260902140017 87 135 2.0 6.0 0.00 0.00 0.00 60 1017.9
20260902135017 86 180 1.0 4.0 0.00 0.00 0.00 62 1018.0
20260902134037 85 135 2.0 4.0 0.00 0.00 0.00 63 1018.1
20260902133017 85 135 3.0 9.0 0.00 0.00 0.00 64 1018.2
20260902132037 84 135 2.0 5.0 0.00 0.00 0.00 64 1018.2
20260902131017 84 135 1.0 5.0 0.00 0.00 0.00 65 1018.2
20260902130017 83 135 1.0 4.0 0.00 0.00 0.00 66 1018.4
20260902125037 83 158 1.0 5.0 0.00 0.00 0.00 65 1018.5
20260902124017 84 135 1.0 4.0 0.00 0.00 0.00 64 1018.6
20260902123017 84 180 1.0 4.0 0.00 0.00 0.00 63 1018.6
20260902122017 84 225 2.0 6.0 0.00 0.00 0.00 62 1018.5
20260902121017 85 248 2.0 5.0 0.00 0.00 0.00 61 1018.6
20260902120017 85 135 1.0 2.0 0.00 0.00 0.00 63 1018.7
20260902115017 85 135 2.0 6.0 0.00 0.00 0.00 63 1018.8
20260902114017 84 248 1.0 5.0 0.00 0.00 0.00 62 1018.8
20260902113017 84 158 2.0 5.0 0.00 0.00 0.00 62 1018.9
20260902112017 85 225 1.0 4.0 0.00 0.00 0.00 61 1019.0
20260902111016 85 180 2.0 7.0 0.00 0.00 0.00 59 1019.0
20260902110017 86 135 2.0 6.0 0.00 0.00 0.00 58 1019.2
20260902105017 86 135 3.0 7.0 0.00 0.00 0.00 58 1019.3
20260902104017 85 135 2.0 7.0 0.00 0.00 0.00 58 1019.2
20260902103016 85 158 2.0 8.0 0.00 0.00 0.00 57 1019.3
20260902102017 85 113 2.0 4.0 0.00 0.00 0.00 57 1019.4
20260902101016 84 135 1.0 3.0 0.00 0.00 0.00 57 1019.6
20260902100017 84 135 1.0 6.0 0.00 0.00 0.00 58 1019.6
20260902095017 84 225 1.0 4.0 0.00 0.00 0.00 59 1019.5
20260902094016 84 135 2.0 6.0 0.00 0.00 0.00 58 1019.5
20260902093016 84 158 2.0 6.0 0.00 0.00 0.00 60 1019.5
20260902092018 83 248 2.0 5.0 0.00 0.00 0.00 61 1019.5
20260902091016 82 225 1.0 3.0 0.00 0.00 0.00 61 1019.5
20260902090038 82 248 2.0 4.0 0.00 0.00 0.00 62 1019.6
20260902085016 82 225 1.0 3.0 0.00 0.00 0.00 63 1019.4
20260902084037 81 0.0 1.0 0.00 0.00 0.00 63 1019.2
20260902083016 81 0.0 2.0 0.00 0.00 0.00 63 1019.3
20260902082017 80 0.0 1.0 0.00 0.00 0.00 63 1019.2
20260902081016 79 0.0 3.0 0.00 0.00 0.00 60 1019.1
20260902080015 78 203 1.0 2.0 0.00 0.00 0.00 59 1018.9
20260902075016 77 0.0 2.0 0.00 0.00 0.00 60 1018.8
20260902074017 76 0.0 2.0 0.00 0.00 0.00 61 1018.8
20260902073016 75 0.0 2.0 0.00 0.00 0.00 61 1018.8
20260902072016 74 0.0 1.0 0.00 0.00 0.00 61 1018.7
20260902071016 73 0.0 1.0 0.00 0.00 0.00 63 1018.7
20260902070016 72 0.0 2.0 0.00 0.00 0.00 65 1018.7
20260902065016 70 0.0 0.0 0.00 0.00 0.00 68 1018.7
20260902064016 69 0.0 2.0 0.00 0.00 0.00 72 1018.7
20260902063016 68 0.0 0.0 0.00 0.00 0.00 77 1018.6
20260902062036 67 0.0 0.0 0.00 0.00 0.00 78 1018.6
20260902061016 66 0.0 0.0 0.00 0.00 0.00 78 1018.5
20260902060016 66 0.0 0.0 0.00 0.00 0.00 78 1018.6
20260902055016 66 0.0 0.0 0.00 0.00 0.00 78 1018.6
20260902054015 66 0.0 0.0 0.00 0.00 0.00 77 1018.5
20260902053016 66 0.0 0.0 0.00 0.00 0.00 76 1018.5
20260902052016 65 0.0 0.0 0.00 0.00 0.00 76 1018.4
20260902051016 65 0.0 0.0 0.00 0.00 0.00 76 1018.4
20260902050016 65 0.0 0.0 0.00 0.00 0.00 76 1018.4
20260902045015 65 0.0 0.0 0.00 0.00 0.00 77 1018.3
20260902044015 65 0.0 0.0 0.00 0.00 0.00 76 1018.3
20260902043015 65 0.0 0.0 0.00 0.00 0.00 76 1018.3
20260902042035 66 0.0 0.0 0.00 0.00 0.00 77 1018.4
20260902041016 66 0.0 0.0 0.00 0.00 0.00 77 1018.4
20260902040015 66 0.0 0.0 0.00 0.00 0.00 76 1018.4
20260902035036 66 0.0 0.0 0.00 0.00 0.00 76 1018.4
20260902034015 66 0.0 0.0 0.00 0.00 0.00 77 1018.4
20260902033015 66 0.0 0.0 0.00 0.00 0.00 76 1018.5
20260902032016 66 0.0 0.0 0.00 0.00 0.00 76 1018.6
20260902031017 66 0.0 0.0 0.00 0.00 0.00 76 1018.7
20260902030016 67 0.0 0.0 0.00 0.00 0.00 76 1018.7
20260902025016 67 0.0 0.0 0.00 0.00 0.00 76 1018.7
20260902024015 67 0.0 0.0 0.00 0.00 0.00 76 1018.7
20260902023017 67 0.0 0.0 0.00 0.00 0.00 75 1018.7
20260902022017 67 0.0 0.0 0.00 0.00 0.00 75 1018.6
20260902021017 67 0.0 0.0 0.00 0.00 0.00 75 1018.6
20260902020017 67 0.0 0.0 0.00 0.00 0.00 75 1018.6
20260902015017 67 0.0 0.0 0.00 0.00 0.00 75 1018.6
20260902014017 67 0.0 0.0 0.00 0.00 0.00 75 1018.6
20260902013039 67 0.0 0.0 0.00 0.00 0.00 76 1018.5
20260902012017 67 0.0 0.0 0.00 0.00 0.00 76 1018.5
20260902011017 67 0.0 0.0 0.00 0.00 0.00 76 1018.4
20260902010017 67 0.0 0.0 0.00 0.00 0.00 76 1018.4
20260902005017 68 0.0 0.0 0.00 0.00 0.00 75 1018.4
20260902004017 68 0.0 0.0 0.00 0.00 0.00 75 1018.5
20260902003017 68 0.0 0.0 0.00 0.00 0.00 75 1018.6
20260902002017 68 0.0 0.0 0.00 0.00 0.00 75 1018.7
20260902001017 68 0.0 0.0 0.00 0.00 0.00 75 1018.7
20260902000057 68 0.0 0.0 0.00 0.00 0.00 74 1018.6
20260901235037 69 0.0 0.0 0.00 0.00 0.00 74 1018.7
20260901234017 69 0.0 0.0 0.00 0.00 0.00 74 1018.7
20260901233017 69 0.0 0.0 0.00 0.00 0.00 74 1018.6
20260901232017 69 0.0 0.0 0.00 0.00 0.00 73 1018.7
20260901231017 70 0.0 0.0 0.00 0.00 0.00 73 1018.6
20260901230017 70 0.0 0.0 0.00 0.00 0.00 72 1018.6
20260901225037 70 0.0 0.0 0.00 0.00 0.00 71 1018.6
20260901224017 70 0.0 0.0 0.00 0.00 0.00 71 1018.6
20260901223037 70 0.0 0.0 0.00 0.00 0.00 71 1018.6
20260901222016 70 0.0 0.0 0.00 0.00 0.00 70 1018.4
20260901221017 71 0.0 0.0 0.00 0.00 0.00 71 1018.5
20260901220017 71 0.0 0.0 0.00 0.00 0.00 71 1018.4
20260901215037 71 0.0 0.0 0.00 0.00 0.00 71 1018.4
20260901214016 71 0.0 0.0 0.00 0.00 0.00 71 1018.4
20260901213016 71 0.0 1.0 0.00 0.00 0.00 71 1018.3
20260901212016 71 0.0 0.0 0.00 0.00 0.00 72 1018.3
20260901211017 71 0.0 0.0 0.00 0.00 0.00 72 1018.4
20260901210016 72 0.0 0.0 0.00 0.00 0.00 72 1018.3
20260901205017 72 0.0 0.0 0.00 0.00 0.00 72 1018.3
20260901204017 72 0.0 1.0 0.00 0.00 0.00 72 1018.3
20260901203036 72 0.0 1.0 0.00 0.00 0.00 72 1018.3
20260901202036 72 0.0 0.0 0.00 0.00 0.00 72 1018.2
20260901201016 73 0.0 1.0 0.00 0.00 0.00 72 1018.2
20260901200016 73 0.0 0.0 0.00 0.00 0.00 72 1018.0
20260901195016 73 0.0 1.0 0.00 0.00 0.00 73 1018.0
20260901194016 73 0.0 0.0 0.00 0.00 0.00 72 1017.9
20260901193017 74 0.0 0.0 0.00 0.00 0.00 71 1017.8
20260901192016 74 0.0 0.0 0.00 0.00 0.00 71 1017.8
20260901191016 74 0.0 0.0 0.00 0.00 0.00 71 1017.7
20260901190018 75 0.0 0.0 0.00 0.00 0.00 71 1017.4
20260901185038 75 0.0 0.0 0.00 0.00 0.00 71 1017.4
20260901184016 75 0.0 0.0 0.00 0.00 0.00 71 1017.4
20260901183016 75 0.0 1.0 0.00 0.00 0.00 72 1017.3
20260901182016 76 0.0 1.0 0.00 0.00 0.00 71 1017.2
20260901181016 77 0.0 0.0 0.00 0.00 0.00 69 1017.2
20260901180016 77 0.0 0.0 0.00 0.00 0.00 68 1017.3
20260901175016 78 0.0 0.0 0.00 0.00 0.00 67 1017.4
20260901174017 79 0.0 0.0 0.00 0.00 0.00 66 1017.3
20260901173016 80 0.0 0.0 0.00 0.00 0.00 64 1017.3